Hourly Data Report for June 19, 2021

ATIKOKAN (AUT)
ONTARIO
Current Station Operator: ECCC - MSC

48°45'40.000" N
91°37'41.000" W
389.30 m
6020LPQ
71747
WCH

Download Data

Hourly Data (June 2021)
Hourly Data Report for June 19, 2021
TIME
LST
Temp Definition
°C
Dew Point Definition
°C
Rel Hum Definition
%
Precip. Amount Definition
mm

Wind Dir Definition
10's deg

Wind Spd Definition
km/h
Visibility Definition
km
Stn Press Definition
kPa
Hmdx Definition


Wind Chill Definition


Weather Definition


00:00 13.2 8.6 73 0.0 35 7   96.37     LegendNANA
01:00 12.7 9.0 78 0.0 35 4   96.39     LegendNANA
02:00 12.5 8.6 77 0.0 35 5   96.41     LegendNANA
03:00 12.1 8.1 77 0.0 3 4   96.43     LegendNANA
04:00 11.7 8.2 79 0.0 34 6   96.48     LegendNANA
05:00 11.4 8.2 81 0.0 35 5   96.52     LegendNANA
06:00 11.6 8.2 80 0.0 34 5   96.55     LegendNANA
07:00 11.7 8.1 79 0.0 32 5   96.56     LegendNANA
08:00 12.1 8.1 77 0.0 34 5   96.58     LegendNANA
09:00 12.6 8.8 78 0.0 30 8   96.53     LegendNANA
10:00 12.7 8.2 74 0.0 33 7   96.53     LegendNANA
11:00 13.2 8.8 75 0.0 28 5   96.51     LegendNANA
12:00 14.0 8.6 70 0.0 23 5   96.47     LegendNANA
13:00 14.1 8.9 71 0.0 27 7   96.46     LegendNANA
14:00 14.3 9.7 74 0.0 27 8   96.45     LegendNANA
15:00 14.3 9.0 70 0.0 26 7   96.43     LegendNANA
16:00 15.1 8.9 66 0.0 32 5   96.38     LegendNANA
17:00 16.0 10.2 69 0.0 21 5   96.32     LegendNANA
18:00 15.8 9.7 67 0.2 21 3   96.26     LegendNANA
19:00 15.2 9.6 69 0.0 14 3   96.23     LegendNANA
20:00 12.6 10.2 85 0.0 0 1   96.22     LegendNANA
21:00 11.1 10.2 94 0.0 4 3   96.23     LegendNANA
22:00 11.6 10.6 94 0.0 4 2   96.19     LegendNANA
23:00 11.9 10.7 93 0.0 5 3   96.15     LegendNANA

Notes on Data Quality.

Legend

  • E = Estimated
  • M = Missing
  • NA = Not Available*
  • [empty] = Indicates an unobserved value
Date modified: